Location: Waco, TX
(31.5480°N, 97.1670°W)
Time: 11:52:31
(UTC-05:00)

ISS - Pass Details

Date: 14 September 2018
Orbit: 403 x 408 km, 51.6° (Epoch: 26 September)

Event Time Altitude Azimuth Distance (km) Brightness Sun altitude
Rises 23:10:17 0° 227° (SW) 2,318 - -43.0°
Reaches altitude 10° 23:12:22 10° 229° (SW) 1,460 - -43.4°
Maximum altitude 23:15:38 74° 316° (NW) 425 - -43.9°
Drops below altitude 10° 23:18:55 10° 41° (NE) 1,465 - -44.4°
Sets 23:21:00 0° 43° (NE) 2,327 - -44.7°
